Satellite-Ground Cal/Val Site Overpasses Predictions

Prediction of Satellite NPP Overpassing Cal/Val Site: Antarctic Dome C

Ground Cal/Val Site Location: Latitude: -75.10, Longitude: 123.35; Satellite-Ground Site NADIR distance within 100 km.

Table of predicted overpasses for the next 14.0 days since TLE Epoch: 4/10/2021
Interval Starting Time Ending Time Minimum Distance Time Minimum Distance (km)
1 04/11/2021 07:30:48 04/11/2021 07:31:18 04/11/2021 07:31:03 2.06
2 04/14/2021 14:54:14 04/14/2021 14:54:42 04/14/2021 14:54:28 19.97
3 04/15/2021 14:35:32 04/15/2021 14:35:46 04/15/2021 14:35:39 86.94
4 04/16/2021 07:37:04 04/16/2021 07:37:31 04/16/2021 07:37:18 33.83
5 04/17/2021 07:18:18 04/17/2021 07:18:36 04/17/2021 07:18:27 76.45
6 04/19/2021 15:00:31 04/19/2021 15:00:55 04/19/2021 15:00:43 56.80
7 04/20/2021 14:41:40 04/20/2021 14:42:05 04/20/2021 14:41:52 52.31
8 04/21/2021 07:43:20 04/21/2021 07:43:41 04/21/2021 07:43:31 68.73
